AAL1776 KDEN-KMEM

Flight info

Callsign AAL1776
Flight time N/A
Altitude 41000
Route EPKEE7 DUUZE ICT RZC BRBBQ3
Aircraft MD11/H-SDE1E2E3FGHIJ2J3J4J5M1RWXY/LB1D1

Departure

Time 2026-05-08 03:01
Airport Denver International Airport (KDEN)

Arrival

Time N/A
Airport Memphis International Airport (KMEM)
Time Latitude Longitude Altitude Speed Heading
2026-05-08 01:55 39.85452 -104.68058 5391 ft 0 kts 180°
2026-05-08 02:43 39.85453 -104.68058 5391 ft 1 kts 180°
2026-05-08 02:43 39.85475 -104.68059 5389 ft 4 kts 171°
2026-05-08 02:44 39.85500 -104.68066 5391 ft 4 kts 157°
2026-05-08 02:44 39.85523 -104.68082 5391 ft 4 kts 138°
2026-05-08 02:44 39.85539 -104.68105 5391 ft 4 kts 112°
2026-05-08 02:44 39.85544 -104.68127 5390 ft 0 kts 90°
2026-05-08 02:50 39.85553 -104.68040 5390 ft 18 kts 78°
2026-05-08 02:50 39.85596 -104.67878 5388 ft 17 kts 66°
2026-05-08 02:50 39.85635 -104.67738 5389 ft 16 kts 75°
2026-05-08 02:51 39.85658 -104.67593 5388 ft 19 kts 81°
2026-05-08 02:51 39.85665 -104.67418 5388 ft 19 kts 90°
2026-05-08 02:51 39.85665 -104.67231 5388 ft 23 kts 90°
2026-05-08 02:51 39.85662 -104.67025 5388 ft 21 kts 91°
2026-05-08 02:52 39.85660 -104.66847 5388 ft 19 kts 89°
2026-05-08 02:52 39.85661 -104.66685 5389 ft 17 kts 90°
2026-05-08 02:52 39.85674 -104.66539 5388 ft 14 kts 75°
2026-05-08 02:52 39.85679 -104.66426 5391 ft 11 kts 88°
2026-05-08 02:53 39.85679 -104.66321 5395 ft 16 kts 90°
2026-05-08 02:53 39.85698 -104.66245 5398 ft 3 kts 37°
2026-05-08 02:53 39.85752 -104.66232 5391 ft 14 kts
2026-05-08 02:53 39.85871 -104.66233 5395 ft 19 kts
2026-05-08 02:54 39.86016 -104.66232 5387 ft 23 kts
2026-05-08 02:54 39.86174 -104.66229 5386 ft 23 kts
2026-05-08 02:54 39.86327 -104.66227 5389 ft 21 kts
2026-05-08 02:54 39.86465 -104.66225 5389 ft 19 kts
2026-05-08 02:55 39.86598 -104.66224 5387 ft 18 kts
2026-05-08 02:55 39.86888 -104.66222 5377 ft 23 kts
2026-05-08 02:55 39.87045 -104.66220 5372 ft 22 kts
2026-05-08 02:56 39.87198 -104.66217 5369 ft 22 kts
2026-05-08 02:56 39.87348 -104.66216 5366 ft 21 kts
2026-05-08 02:56 39.87455 -104.66215 5368 ft 6 kts
2026-05-08 02:56 39.87474 -104.66214 5368 ft 0 kts
2026-05-08 02:57 39.87502 -104.66213 5366 ft 12 kts
2026-05-08 02:57 39.87567 -104.66193 5368 ft 5 kts 41°
2026-05-08 02:57 39.87597 -104.66122 5368 ft 8 kts 56°
2026-05-08 02:58 39.87613 -104.66107 5368 ft 0 kts 27°
2026-05-08 02:59 39.87666 -104.66096 5367 ft 14 kts 359°
2026-05-08 02:59 39.87725 -104.66089 5365 ft 4 kts 25°
2026-05-08 02:59 39.87747 -104.66052 5366 ft 6 kts 65°
2026-05-08 02:59 39.87751 -104.66026 5365 ft 0 kts 82°
2026-05-08 03:00 39.87752 -104.66022 5365 ft 0 kts 83°
2026-05-08 03:00 39.87752 -104.65687 5362 ft 86 kts 90°
2026-05-08 03:01 39.87744 -104.64518 5353 ft 166 kts 91°
2026-05-08 03:01 39.87723 -104.62909 5896 ft 183 kts 91°
2026-05-08 03:01 39.87698 -104.61275 6926 ft 177 kts 91°
2026-05-08 03:01 39.87628 -104.59646 7839 ft 180 kts 99°
2026-05-08 03:02 39.87409 -104.58108 8899 ft 172 kts 105°
2026-05-08 03:02 39.86972 -104.56605 9735 ft 184 kts 117°
2026-05-08 03:02 39.86251 -104.55170 10458 ft 194 kts 126°
2026-05-08 03:02 39.85415 -104.53764 11125 ft 202 kts 129°
2026-05-08 03:03 39.84441 -104.52279 11700 ft 235 kts 131°
2026-05-08 03:03 39.83322 -104.50617 12397 ft 253 kts 131°
2026-05-08 03:03 39.82176 -104.48901 13612 ft 247 kts 129°
2026-05-08 03:03 39.81120 -104.47081 14383 ft 266 kts 126°
2026-05-08 03:04 39.79917 -104.44917 14192 ft 313 kts 125°
2026-05-08 03:04 39.78771 -104.42785 16351 ft 261 kts 124°
2026-05-08 03:04 39.77820 -104.40922 17977 ft 246 kts 121°